• In Hungary
  • List of Countries
  • For 7 days
  • Water Temperature
  • Satellite Maps
  • Weather Map
  • News
  • Weather Widgets
  • user-avatar
    Login

    Hourly Weather Czerniec

    Today, 20 September, Thursday

    Time Temperature Precipitation Wind Pressure Humidity
    00:00 +18°C° 0 mm 2 mps 751 mmHg 72%
    01:00 +18°C° 0 mm 3 mps 751 mmHg 70%
    02:00 +18°C° 0 mm 3 mps 751 mmHg 70%
    03:00 +18°C° 0 mm 3 mps 751 mmHg 70%
    04:00 +18°C° 0 mm 3 mps 751 mmHg 70%
    05:00 +19°C° 0 mm 3 mps 751 mmHg 71%
    06:00 +19°C° 0 mm 3 mps 751 mmHg 72%
    07:00 +19°C° 0 mm 3 mps 752 mmHg 73%
    08:00 +21°C° 0 mm 3 mps 752 mmHg 68%
    09:00 +24°C° 0 mm 3 mps 752 mmHg 63%
    10:00 +26°C° 0 mm 3 mps 752 mmHg 58%
    11:00 +27°C° 0 mm 3 mps 752 mmHg 55%
    12:00 +27°C° 0 mm 3 mps 752 mmHg 52%
    13:00 +28°C° 0 mm 4 mps 752 mmHg 49%
    14:00 +28°C° 0 mm 3 mps 752 mmHg 49%
    15:00 +28°C° 0 mm 3 mps 751 mmHg 50%
    16:00 +27°C° 0 mm 3 mps 751 mmHg 51%
    17:00 +26°C° 0 mm 2 mps 751 mmHg 57%
    18:00 +24°C° 0 mm 2 mps 751 mmHg 63%
    19:00 +21°C° 0 mm 2 mps 751 mmHg 69%
    20:00 +21°C° 0 mm 2 mps 750 mmHg 70%
    21:00 +20°C° 0 mm 2 mps 750 mmHg 72%
    22:00 +20°C° 0 mm 2 mps 750 mmHg 74%
    23:00 +20°C° 0 mm 3 mps 750 mmHg 74%

    Tomorrow, 21 September, Friday

    Time Temperature Precipitation Wind Pressure Humidity
    00:00 +20°C° 0 mm 3 mps 750 mmHg 74%
    01:00 +20°C° 0 mm 3 mps 749 mmHg 75%
    02:00 +20°C° 0 mm 4 mps 749 mmHg 74%
    03:00 +19°C° 0 mm 4 mps 749 mmHg 73%
    04:00 +19°C° 0 mm 4 mps 748 mmHg 72%
    05:00 +20°C° 0 mm 5 mps 748 mmHg 70%
    06:00 +20°C° 0 mm 5 mps 748 mmHg 68%
    07:00 +20°C° 0 mm 5 mps 748 mmHg 66%
    08:00 +22°C° 0 mm 6 mps 747 mmHg 59%
    09:00 +24°C° 0 mm 7 mps 747 mmHg 53%
    10:00 +27°C° 0 mm 7 mps 747 mmHg 46%
    11:00 +28°C° 0 mm 8 mps 746 mmHg 45%
    12:00 +28°C° 0 mm 8 mps 745 mmHg 43%
    13:00 +29°C° 0 mm 8 mps 745 mmHg 41%
    14:00 +29°C° 0 mm 8 mps 744 mmHg 42%
    15:00 +28°C° 0 mm 8 mps 743 mmHg 42%
    16:00 +28°C° 0 mm 7 mps 742 mmHg 43%
    17:00 +26°C° 0 mm 8 mps 742 mmHg 49%
    18:00 +23°C° 0 mm 8 mps 743 mmHg 54%
    19:00 +21°C° 0 mm 8 mps 743 mmHg 60%
    20:00 +17°C° 0.8 mm 7 mps 744 mmHg 65%
    21:00 +15°C° 0.8 mm 7 mps 745 mmHg 71%
    22:00 +13°C° 0.8 mm 6 mps 746 mmHg 76%
    23:00 +11°C° 0.1 mm 6 mps 746 mmHg 75%

    Day after tomorrow, 22 September, Saturday

    Time Temperature Precipitation Wind Pressure Humidity
    00:00 +12°C° 0.1 mm 5 mps 747 mmHg 74%
    01:00 +12°C° 0.1 mm 5 mps 747 mmHg 72%
    02:00 +11°C° 0 mm 6 mps 747 mmHg 71%
    03:00 +10°C° 0 mm 6 mps 747 mmHg 69%
    04:00 +10°C° 0 mm 6 mps 747 mmHg 67%
    05:00 +10°C° 0 mm 7 mps 747 mmHg 66%
    06:00 +10°C° 0 mm 7 mps 747 mmHg 65%
    07:00 +10°C° 0 mm 8 mps 748 mmHg 64%
    08:00 +11°C° 0 mm 8 mps 748 mmHg 61%
    09:00 +12°C° 0 mm 8 mps 748 mmHg 59%
    10:00 +14°C° 0 mm 7 mps 749 mmHg 57%
    11:00 +15°C° 0.1 mm 7 mps 749 mmHg 55%
    12:00 +15°C° 0.1 mm 7 mps 749 mmHg 52%
    13:00 +16°C° 0.1 mm 6 mps 749 mmHg 50%
    14:00 +16°C° 0.3 mm 6 mps 749 mmHg 52%
    15:00 +15°C° 0.3 mm 6 mps 749 mmHg 54%
    16:00 +15°C° 0.3 mm 6 mps 748 mmHg 56%
    17:00 +14°C° 0.2 mm 6 mps 748 mmHg 61%
    18:00 +13°C° 0.2 mm 6 mps 748 mmHg 67%
    19:00 +10°C° 0.2 mm 5 mps 748 mmHg 72%
    20:00 +10°C° 0 mm 6 mps 748 mmHg 73%
    21:00 +10°C° 0 mm 6 mps 749 mmHg 73%
    22:00 +9°C° 0 mm 6 mps 749 mmHg 74%
    23:00 +9°C° 0 mm 6 mps 749 mmHg 74%

    23 September, Sunday

    Time Temperature Precipitation Wind Pressure Humidity
    00:00 +9°C° 0 mm 7 mps 749 mmHg 73%
    01:00 +9°C° 0 mm 7 mps 748 mmHg 73%
    02:00 +9°C° 0 mm 7 mps 748 mmHg 74%
    03:00 +8°C° 0 mm 7 mps 748 mmHg 75%
    04:00 +8°C° 0 mm 7 mps 748 mmHg 76%
    05:00 +8°C° 0 mm 7 mps 748 mmHg 75%
    06:00 +8°C° 0 mm 7 mps 748 mmHg 75%
    07:00 +9°C° 0 mm 7 mps 748 mmHg 74%
    08:00 +10°C° 0 mm 7 mps 749 mmHg 69%
    09:00 +11°C° 0 mm 7 mps 749 mmHg 64%
    10:00 +12°C° 0 mm 7 mps 749 mmHg 59%
    11:00 +14°C° 0.1 mm 7 mps 749 mmHg 54%
    12:00 +15°C° 0.1 mm 6 mps 749 mmHg 50%
    13:00 +15°C° 0.1 mm 6 mps 748 mmHg 45%
    14:00 +15°C° 0 mm 5 mps 748 mmHg 46%
    15:00 +15°C° 0 mm 4 mps 747 mmHg 47%
    16:00 +15°C° 0 mm 4 mps 747 mmHg 48%
    17:00 +14°C° 0 mm 3 mps 746 mmHg 50%
    18:00 +13°C° 0 mm 3 mps 745 mmHg 53%
    19:00 +12°C° 0 mm 3 mps 744 mmHg 55%
    20:00 +11°C° 0.7 mm 3 mps 743 mmHg 64%
    21:00 +11°C° 0.7 mm 4 mps 742 mmHg 72%
    22:00 +9°C° 0.7 mm 5 mps 741 mmHg 80%
    23:00 +9°C° 2.2 mm 6 mps 739 mmHg 84%

    24 September, Monday

    Time Temperature Precipitation Wind Pressure Humidity
    00:00 +9°C° 2.2 mm 7 mps 737 mmHg 87%
    01:00 +9°C° 2.2 mm 8 mps 735 mmHg 90%
    02:00 +10°C° 3.4 mm 8 mps 733 mmHg 91%
    03:00 +11°C° 3.4 mm 8 mps 732 mmHg 92%
    04:00 +12°C° 3.4 mm 7 mps 730 mmHg 93%
    05:00 +12°C° 1 mm 7 mps 729 mmHg 90%
    06:00 +12°C° 1 mm 7 mps 728 mmHg 86%
    07:00 +13°C° 1 mm 6 mps 727 mmHg 82%
    08:00 +13°C° 0.2 mm 6 mps 727 mmHg 83%
    09:00 +13°C° 0.2 mm 6 mps 727 mmHg 84%
    10:00 +11°C° 0.2 mm 6 mps 727 mmHg 84%
    11:00 +11°C° 1.1 mm 8 mps 728 mmHg 84%
    12:00 +10°C° 1.1 mm 9 mps 729 mmHg 84%
    13:00 +9°C° 1.1 mm 11 mps 730 mmHg 84%
    14:00 +9°C° 0.6 mm 11 mps 731 mmHg 82%
    15:00 +9°C° 0.6 mm 12 mps 733 mmHg 81%
    16:00 +9°C° 0.6 mm 13 mps 735 mmHg 79%
    17:00 +9°C° 0.6 mm 13 mps 737 mmHg 78%
    18:00 +8°C° 0.6 mm 13 mps 739 mmHg 76%
    19:00 +8°C° 0.6 mm 13 mps 740 mmHg 75%
    20:00 +8°C° 0.3 mm 12 mps 742 mmHg 73%
    21:00 +8°C° 0.3 mm 11 mps 743 mmHg 71%
    22:00 +7°C° 0.3 mm 10 mps 744 mmHg 69%
    23:00 +7°C° 0.1 mm 10 mps 745 mmHg 68%

    25 September, Tuesday

    Time Temperature Precipitation Wind Pressure Humidity
    00:00 +6°C° 0.1 mm 9 mps 746 mmHg 67%
    01:00 +6°C° 0.1 mm 8 mps 747 mmHg 66%
    02:00 +6°C° 0.1 mm 8 mps 747 mmHg 65%
    03:00 +6°C° 0.1 mm 8 mps 748 mmHg 65%
    04:00 +6°C° 0.1 mm 7 mps 748 mmHg 64%
    05:00 +6°C° 0.1 mm 7 mps 749 mmHg 62%
    06:00 +6°C° 0.1 mm 8 mps 750 mmHg 61%
    07:00 +6°C° 0.1 mm 8 mps 750 mmHg 59%
    08:00 +7°C° 0.1 mm 8 mps 751 mmHg 54%
    09:00 +8°C° 0.1 mm 9 mps 752 mmHg 49%
    10:00 +9°C° 0.1 mm 10 mps 752 mmHg 44%
    11:00 +9°C° 0.1 mm 10 mps 753 mmHg 43%
    12:00 +11°C° 0.1 mm 9 mps 754 mmHg 41%
    13:00 +11°C° 0.1 mm 9 mps 754 mmHg 40%
    14:00 +11°C° 0 mm 9 mps 754 mmHg 41%
    15:00 +10°C° 0 mm 8 mps 755 mmHg 42%
    16:00 +10°C° 0 mm 8 mps 755 mmHg 43%
    17:00 +9°C° 0 mm 7 mps 755 mmHg 47%
    18:00 +8°C° 0 mm 5 mps 756 mmHg 51%
    19:00 +7°C° 0 mm 4 mps 756 mmHg 55%
    20:00 +7°C° 0 mm 4 mps 756 mmHg 58%
    21:00 +6°C° 0 mm 4 mps 756 mmHg 61%
    22:00 +6°C° 0 mm 4 mps 756 mmHg 64%
    23:00 +6°C° 0 mm 4 mps 757 mmHg 67%
    Show more